Stations météo

Publicité
Beauvais, France (7055): Température de l'air & dewpoint: 16.02.2020 04:00:00 - 22.02.2020 04:00:00 (CET)Beauvais, France (7055): Température de l'air 5cm: 16.02.2020 04:00:00 - 22.02.2020 04:00:00 (CET)Beauvais, France (7055): Température de l'air -20cm & Température de l'air -100cm: 16.02.2020 04:00:00 - 22.02.2020 04:00:00 (CET)Beauvais, France (7055): Vitesse du vent & gusts: 16.02.2020 04:00:00 - 22.02.2020 04:00:00 (CET)Beauvais, France (7055): Direction du vent: 16.02.2020 04:00:00 - 22.02.2020 04:00:00 (CET)Beauvais, France (7055): reduced air pressure: 16.02.2020 04:00:00 - 22.02.2020 04:00:00 (CET)Beauvais, France (7055): visibility: 16.02.2020 04:00:00 - 22.02.2020 04:00:00 (CET)Beauvais, France (7055): Ensoleillement: 16.02.2020 04:00:00 - 22.02.2020 04:00:00 (CET)Beauvais, France (7055): Quantités de précipitations: 16.02.2020 04:00:00 - 22.02.2020 04:00:00 (CET)
Date & Time tt [°C] td [°C] tt 5cm [°C] tt -20cm [°C] tt -100cm [°C] ff [km/h] ff [knt] fx [km/h] fx [knt] dd ppp [hPa] vv [km] sd [min] rr [mm]
22.02.2020 04:00:00 4,6 2,6 2,5 8,0 8,9 17 9 27 15 SSW 1026,7 40 0 0,0
22.02.2020 03:00:00 4,4 2,3 2,6 8,0 8,9 17 9 24 13 SW 1027,3 42 0 0,0
22.02.2020 02:00:00 4,4 2,3 2,5 8,0 8,9 13 7 24 13 SSW 1027,0 45 0 0,0
22.02.2020 01:00:00 4,8 2,3 3,1 8,0 8,9 16 8 29 16 SW 1027,7 45 0 0,0
22.02.2020 00:00:00 5,9 2,7 4,1 8,0 8,9 19 10 37 20 SW 1027,8 52 0 0,0
21.02.2020 23:00:00 6,3 2,9 4,6 8,0 8,9 19 10 31 17 SW 1028,0 54 0 0,0
21.02.2020 22:00:00 6,8 2,9 5,5 8,0 8,9 20 11 36 19 SW 1028,6 56 0 0,0
21.02.2020 21:00:00 7,2 2,7 6,0 8,0 8,9 19 11 35 19 SSW 1028,5 60 0 0,0
21.02.2020 20:00:00 7,6 2,5 6,4 8,0 8,9 21 11 35 19 SW 1028,9 60 0 0,0
21.02.2020 19:00:00 7,7 2,8 6,4 7,9 8,9 19 10 36 19 SW 1028,8 49 0 0,0
21.02.2020 18:00:00 8,6 2,8 7,9 7,9 8,9 20 11 36 20 SW 1028,6 60 10 0,0
21.02.2020 17:00:00 9,1 2,9 9,0 7,9 8,9 21 12 38 21 SW 1028,6 54 2 0,0
21.02.2020 16:00:00 9,4 2,9 10,2 7,9 8,9 23 12 41 22 SW 1028,8 52 0 0,0
21.02.2020 15:00:00 9,3 3,3 10,1 7,9 8,9 26 14 40 22 SW 1029,1 34 0 0,0
21.02.2020 14:00:00 9,0 3,0 10,9 8,0 8,9 21 11 40 21 WSW 1030,1 20 6 0,0
21.02.2020 13:00:00 9,2 3,8 13,2 8,0 8,9 25 13 39 21 SW 1030,6 20 55 0,0
21.02.2020 12:00:00 8,2 3,8 11,4 8,0 8,9 22 12 35 19 WSW 1030,7 19 49 0,0
21.02.2020 11:00:00 6,8 3,2 11,6 8,1 8,9 21 11 31 17 WSW 1030,5 43 60 0,0
21.02.2020 10:00:00 5,7 2,9 7,0 8,1 8,9 19 10 29 16 WSW 1030,0 19 60 0,0
21.02.2020 09:00:00 4,1 1,6 1,7 8,1 8,9 17 9 27 14 WSW 1030,2 20 29 0,0
21.02.2020 08:00:00 3,0 0,7 0,9 8,2 8,9 17 9 26 14 WSW 1029,6 39 0 0,0
21.02.2020 07:00:00 2,9 0,6 1,4 8,2 8,9 16 9 26 14 WSW 1029,1 39 0 0,0
21.02.2020 06:00:00 3,2 1,1 1,8 8,2 8,9 17 9 26 14 WSW 1028,6 36 0 0,0
21.02.2020 05:00:00 3,4 1,3 1,6 8,3 8,9 16 9 24 13 WSW 1028,4 20 0 0,0
21.02.2020 04:00:00 3,1 1,1 1,6 8,2 8,9 15 8 23 12 WSW 1028,0 37 0 0,0
21.02.2020 03:00:00 3,3 1,2 1,6 8,3 8,9 16 8 24 13 WSW 1027,4 43 0 0,0
21.02.2020 02:00:00 3,7 0,9 1,6 8,3 8,9 17 9 25 14 WSW 1026,9 49 0 0,0
21.02.2020 01:00:00 4,2 1,2 2,6 8,3 8,9 15 8 26 14 W 1026,0 49 0 0,0
21.02.2020 00:00:00 4,1 2,0 2,1 8,3 8,9 18 10 24 13 WSW 1025,3 43 0 0,0
20.02.2020 23:00:00 4,1 2,0 2,1 8,3 8,9 11 6 29 15 W 1024,2 46 0 0,0
20.02.2020 22:00:00 5,0 2,7 3,7 8,3 8,9 22 12 35 19 W 1022,8 56 0 0,0
20.02.2020 21:00:00 5,5 2,5 4,4 8,3 8,9 22 12 37 20 W 1021,3 60 0 0,0
20.02.2020 20:00:00 5,9 2,9 4,6 8,2 8,9 24 13 40 21 W 1020,0 60 0 0,0
20.02.2020 19:00:00 6,6 4,3 5,8 8,2 8,9 28 15 82 44 W 1018,2 60 0 1,8
20.02.2020 18:00:00 9,7 7,6 8,7 8,2 8,9 27 15 59 32 SW 1014,0 10 0 0,2
20.02.2020 17:00:00 10,7 6,6 9,5 8,2 8,9 32 17 59 32 SW 1013,9 30 0 0,0
20.02.2020 16:00:00 10,9 6,4 10,4 8,2 8,9 32 17 55 30 SSW 1014,0 56 0 0,0
20.02.2020 15:00:00 10,7 6,8 11,0 8,1 8,9 34 18 60 33 SSW 1014,5 46 22 0,0
20.02.2020 14:00:00 10,8 6,7 10,9 8,2 8,9 34 18 51 28 SSW 1015,5 50 11 0,0
20.02.2020 13:00:00 10,2 6,0 9,6 8,2 8,9 26 14 44 24 SSW 1016,3 43 0 0,0
20.02.2020 12:00:00 9,1 5,8 9,6 8,1 8,9 25 14 45 24 SSW 1017,5 44 0 0,0
20.02.2020 11:00:00 9,1 5,6 8,4 8,1 8,9 24 13 42 23 SSW 1017,8 52 0 0,0
20.02.2020 10:00:00 8,6 5,9 8,2 8,1 8,9 22 12 38 21 SSW 1018,3 40 0 0,0
20.02.2020 09:00:00 8,5 5,6 7,4 8,1 8,9 22 12 37 20 SSW 1018,5 58 0 0,0
20.02.2020 08:00:00 8,0 5,8 7,2 8,1 8,9 19 10 36 19 SSW 1018,4 46 0 0,0
20.02.2020 07:00:00 7,9 5,5 7,1 8,2 8,9 18 10 31 17 SSW 1018,8 44 0 0,0
20.02.2020 06:00:00 7,8 5,8 7,1 8,2 8,9 19 10 33 18 SSW 1018,9 20 0 0,0
20.02.2020 05:00:00 7,9 5,7 7,0 8,1 8,9 21 12 31 17 SSW 1019,1 40 0 0,0
20.02.2020 04:00:00 7,9 5,7 6,9 8,1 8,9 18 10 30 16 SSW 1019,6 41 0 0,0
20.02.2020 03:00:00 7,7 6,0 6,9 8,1 8,9 15 8 27 15 SSW 1020,3 20 0 0,0
20.02.2020 02:00:00 7,8 6,1 6,4 8,2 8,9 19 10 31 17 SW 1020,8 20 0 0,0
20.02.2020 01:00:00 7,6 6,1 6,1 8,1 8,9 18 10 29 16 SW 1021,1 20 0 0,0
20.02.2020 00:00:00 7,9 6,5 6,7 8,1 8,9 18 10 32 17 SW 1021,5 19 0 0,0
19.02.2020 23:00:00 7,8 6,6 6,8 8,1 8,9 15 8 29 16 SSW 1022,2 18 0 0,0
19.02.2020 22:00:00 7,9 6,7 6,9 8,1 8,9 20 11 32 17 SSW 1022,6 17 0 0,0
19.02.2020 21:00:00 7,5 6,6 6,7 8,1 8,9 16 9 24 13 SSW 1023,0 17 0 0,0
19.02.2020 20:00:00 7,3 6,4 6,7 8,1 8,9 15 8 29 16 SSW 1023,8 19 0 0,0
19.02.2020 19:00:00 7,0 5,9 6,5 8,1 8,9 16 8 24 13 SSW 1024,1 8 0 0,4
19.02.2020 18:00:00 7,1 5,9 6,7 8,1 8,9 11 6 19 10 SSW 1024,3 12 0 0,2
19.02.2020 17:00:00 7,4 5,2 6,8 8,1 8,9 13 7 25 13 WSW 1024,8 14 0 0,2
19.02.2020 16:00:00 8,1 4,1 7,9 8,1 8,9 15 8 34 18 WSW 1024,9 34 0 0,0
19.02.2020 15:00:00 8,5 3,5 7,7 8,1 8,9 19 10 46 25 W 1025,2 41 0 0,0
19.02.2020 14:00:00 9,0 3,4 9,8 8,1 8,9 16 9 32 17 WSW 1025,2 45 8 0,0
19.02.2020 13:00:00 8,4 3,8 9,8 8,1 8,9 22 12 40 22 WSW 1025,5 20 25 0,0
19.02.2020 12:00:00 8,1 3,7 9,0 8,2 8,9 19 10 36 20 W 1025,7 20 33 0,0
19.02.2020 11:00:00 7,3 3,9 9,6 8,2 8,9 21 12 30 16 WSW 1025,6 14 54 0,0
19.02.2020 10:00:00 5,8 3,1 5,0 8,2 8,9 15 8 21 11 WSW 1025,2 20 48 0,0
19.02.2020 09:00:00 4,1 2,1 0,7 8,2 8,9 14 7 18 10 WSW 1024,9 20 26 0,0
19.02.2020 08:00:00 2,5 0,7 0,6 8,2 8,9 11 6 20 11 W 1024,2 39 0 0,0
19.02.2020 07:00:00 3,8 2,0 2,1 8,3 8,9 16 8 42 23 W 1023,0 20 0 0,0
19.02.2020 06:00:00 4,9 1,6 3,3 8,3 8,9 29 16 42 23 WNW 1022,5 54 0 0,0
19.02.2020 05:00:00 5,3 3,5 3,8 8,3 8,9 21 12 34 18 W 1021,6 42 0 0,0
19.02.2020 04:00:00 5,1 3,9 3,4 8,3 8,9 16 9 27 14 W 1020,8 58 0 0,0
19.02.2020 03:00:00 5,5 3,5 4,1 8,3 8,9 18 10 39 21 W 1020,4 60 0 0,0
19.02.2020 02:00:00 5,9 3,6 4,7 8,3 8,9 23 13 58 31 WSW 1020,5 20 0 0,2
19.02.2020 01:00:00 5,9 3,7 5,2 8,3 8,9 31 17 74 40 W 1020,6 60 0 1,8
19.02.2020 00:00:00 7,6 4,9 6,4 8,3 8,9 34 18 58 31 SW 1019,4 14 0 0,2
18.02.2020 23:00:00 8,0 4,2 6,2 8,3 8,9 33 18 50 27 SW 1020,4 60 0 0,0
18.02.2020 22:00:00 8,0 4,4 6,1 8,3 8,9 26 14 49 27 SW 1021,4 57 0 0,0
18.02.2020 21:00:00 8,0 4,2 6,1 8,3 8,9 19 10 37 20 SW 1022,7 44 0 0,0
18.02.2020 20:00:00 8,1 3,0 6,6 8,3 8,9 13 7 34 19 S 1023,3 60 0 0,0
18.02.2020 19:00:00 8,6 2,8 6,3 8,3 8,9 22 12 36 20 SW 1023,9 60 0 0,0
18.02.2020 18:00:00 8,5 3,3 6,6 8,3 8,9 18 10 30 16 SW 1024,1 55 0 0,0
18.02.2020 17:00:00 8,1 4,7 7,1 8,3 8,9 20 11 38 20 WSW 1024,7 27 3 0,2
18.02.2020 16:00:00 8,4 4,8 6,2 8,3 8,9 17 9 56 30 W 1025,5 24 15 0,4
18.02.2020 15:00:00 9,5 3,5 9,6 8,3 8,9 22 12 41 22 WSW 1025,7 43 0 0,0
18.02.2020 14:00:00 9,5 3,5 9,7 8,3 8,9 27 14 43 23 WSW 1025,8 36 8 0,0
18.02.2020 13:00:00 8,8 4,0 10,2 8,4 8,9 24 13 51 27 WSW 1026,4 32 20 0,0
18.02.2020 12:00:00 8,3 3,9 11,4 8,4 8,9 27 15 42 23 WSW 1027,0 20 52 0,0
18.02.2020 11:00:00 7,1 3,2 10,4 8,5 8,9 25 14 39 21 SW 1027,5 41 60 0,0
18.02.2020 10:00:00 5,8 2,8 7,0 8,5 8,9 23 12 37 20 SW 1027,3 19 60 0,0
18.02.2020 09:00:00 4,4 2,3 2,6 8,5 8,9 18 10 31 17 SW 1027,0 10 24 0,0
18.02.2020 08:00:00 3,6 1,8 2,1 8,5 8,8 19 10 31 17 SW 1026,8 40 0 0,0
18.02.2020 07:00:00 3,5 1,7 2,3 8,6 8,8 16 8 30 16 SSW 1026,3 43 0 0,0
18.02.2020 06:00:00 4,0 1,9 2,7 8,6 8,8 18 10 35 19 SW 1026,1 10 0 0,0
18.02.2020 05:00:00 4,5 2,2 3,2 8,6 8,8 24 13 37 20 SW 1025,8 55 0 0,0
18.02.2020 04:00:00 4,5 2,2 3,3 8,7 8,8 21 11 42 23 SW 1025,2 59 0 0,0
18.02.2020 03:00:00 4,9 2,4 3,6 8,7 8,8 20 11 37 20 WSW 1025,2 60 0 0,0
18.02.2020 02:00:00 5,4 2,7 4,0 8,7 8,8 23 13 36 20 WSW 1024,9 60 0 0,0
18.02.2020 01:00:00 5,5 2,7 4,3 8,7 8,8 21 11 41 22 WSW 1024,1 60 0 0,0
18.02.2020 00:00:00 5,9 2,7 4,7 8,7 8,8 24 13 45 24 WSW 1023,7 60 0 0,0
17.02.2020 23:00:00 6,1 2,7 4,9 8,7 8,8 31 17 45 24 WSW 1022,7 10 0 0,0
17.02.2020 22:00:00 6,4 3,0 5,0 8,7 8,8 28 15 49 26 WSW 1021,9 60 0 0,0
17.02.2020 21:00:00 7,0 2,9 4,7 8,7 8,8 24 13 43 23 WSW 1021,2 60 0 0,0
17.02.2020 20:00:00 6,7 3,8 5,0 8,7 8,8 15 8 44 24 WSW 1021,0 60 0 0,0
17.02.2020 19:00:00 7,5 3,7 5,8 8,7 8,8 24 13 52 28 W 1020,1 52 0 0,0
17.02.2020 18:00:00 7,9 4,1 6,0 8,7 8,8 20 11 51 28 WSW 1018,6 58 4 0,0
17.02.2020 17:00:00 8,0 5,1 6,8 8,7 8,7 39 21 65 35 W 1018,0 5 28 0,4
17.02.2020 16:00:00 11,0 2,0 10,9 8,7 8,8 35 19 70 38 WSW 1016,7 36 35 0,0
17.02.2020 15:00:00 11,4 0,5 13,6 8,7 8,7 43 23 66 36 WSW 1016,3 20 60 0,0
17.02.2020 14:00:00 11,4 2,9 10,7 8,7 8,7 35 19 71 38 WSW 1016,1 22 32 0,0
17.02.2020 13:00:00 10,4 3,9 9,9 8,7 8,7 35 19 65 35 WSW 1016,1 46 12 0,0
17.02.2020 12:00:00 10,1 3,6 10,9 8,8 8,7 36 19 58 32 WSW 1016,2 34 31 0,0
17.02.2020 11:00:00 10,1 5,1 12,3 8,8 8,7 31 17 50 27 SW 1015,6 32 56 0,0
17.02.2020 10:00:00 9,0 6,3 8,0 8,8 8,7 27 15 41 22 SSW 1015,3 35 57 0,0
17.02.2020 09:00:00 7,7 6,0 6,2 8,8 8,7 21 12 32 17 SSW 1015,2 45 9 0,0
17.02.2020 08:00:00 7,2 5,3 6,1 8,8 8,7 19 10 33 18 SSW 1014,6 50 0 0,0
17.02.2020 07:00:00 7,5 5,1 6,6 8,8 8,7 17 9 27 14 SSW 1014,6 55 0 0,0
17.02.2020 06:00:00 7,7 5,2 6,9 8,8 8,7 21 12 39 21 SSW 1014,9 56 0 0,0
17.02.2020 05:00:00 7,8 5,3 6,9 8,8 8,7 23 12 41 22 SW 1014,8 60 0 0,0
17.02.2020 04:00:00 7,7 5,2 6,7 8,8 8,6 22 12 33 18 SW 1014,8 60 0 0,0
17.02.2020 03:00:00 8,0 4,8 7,0 8,8 8,7 22 12 34 18 SW 1014,9 60 0 0,0
17.02.2020 02:00:00 8,2 5,3 7,3 8,8 8,6 22 12 36 19 SW 1014,5 60 0 0,0
17.02.2020 01:00:00 8,4 5,7 7,5 8,8 8,7 26 14 42 23 WSW 1013,7 60 0 0,0
17.02.2020 00:00:00 8,3 5,8 7,4 8,7 8,7 26 14 52 28 WSW 1012,3 60 0 0,0
16.02.2020 23:00:00 8,3 5,9 7,3 8,7 8,6 31 17 50 27 WSW 1011,4 60 0 0,0
16.02.2020 22:00:00 8,0 6,1 7,0 8,7 8,7 29 15 51 28 SW 1010,7 33 0 1,6
16.02.2020 21:00:00 8,2 7,1 7,8 8,6 8,6 23 12 50 27 WSW 1009,6 9 0 2,0
16.02.2020 20:00:00 8,4 7,5 7,9 8,6 8,6 27 14 44 24 WSW 1008,2 11 0 0,4
16.02.2020 19:00:00 8,4 7,2 8,1 8,5 8,6 31 17 86 47 WNW 1007,2 4,3 0 1,6
16.02.2020 18:00:00 16,4 10,9 13,4 8,5 8,6 58 31 102 55 SW 1003,3 58 0 0,2
16.02.2020 17:00:00 16,5 11,0 15,4 8,5 8,6 49 26 96 52 SW 1002,8 20 0 0,0
16.02.2020 16:00:00 16,1 11,0 15,1 8,4 8,6 45 25 96 52 SSW 1002,7 42 0 0,0
16.02.2020 15:00:00 16,2 10,7 15,4 8,4 8,6 58 31 94 51 SSW 1002,6 37 0 0,0
16.02.2020 14:00:00 15,5 10,5 14,9 8,4 8,6 46 25 84 46 SSW 1003,4 39 0 0,0
16.02.2020 13:00:00 15,0 10,4 14,9 8,4 8,6 48 26 74 40 SSW 1004,2 47 0 0,0
16.02.2020 12:00:00 14,5 9,9 13,9 8,3 8,6 46 25 77 42 SSW 1005,1 46 0 0,0
16.02.2020 11:00:00 14,1 9,1 13,6 8,3 8,6 39 21 75 41 SSW 1005,7 55 0 0,0
16.02.2020 10:00:00 13,8 9,0 13,0 8,3 8,6 39 21 89 48 SSW 1005,8 56 0 0,0
16.02.2020 09:00:00 13,6 8,8 11,0 8,2 8,6 42 23 79 43 SSW 1005,9 57 2 0,0
16.02.2020 08:00:00 13,0 8,9 10,9 8,2 8,6 46 25 76 41 SSW 1006,3 13 0 0,0
16.02.2020 07:00:00 13,1 8,4 11,3 8,2 8,6 41 22 77 42 SSW 1006,8 60 0 0,0
16.02.2020 06:00:00 13,3 9,4 11,0 8,2 8,6 40 21 76 41 SSW 1007,2 60 0 0,6
16.02.2020 05:00:00 12,1 10,0 10,7 8,1 8,6 35 19 64 35 SSW 1008,0 8 0 1,2
16.02.2020 04:00:00 11,7 9,8 10,4 8,1 8,5 31 17 51 27 SSW 1009,0 11 0 0,8

tt = Température de l'air
td = dewpoint
tt 5cm = Température de l'air 5cm
tt -20cm = Température de l'air -20cm
tt -100cm = Température de l'air -100cm
ff = Vitesse du vent
fx = gusts
dd = Direction du vent
ppp = reduced air pressure
vv = visibility
sd = Ensoleillement
rr = Quantités de précipitations

stations d'obs. à proximité